[[{"header":{"parameterUnit":"m.s-1","parameterCategory":1,"la1":30.2991,"la2":30.254,"lo1":-89.0895,"lo2":-89.0444,"dy":0.0017,"dx":0.0017,"nx":28,"ny":28,"refTime":"2025-07-07T03:00:00:Z","depth":0,"parameterNumber":2,"parameterNumberName":"U-component_of_WINDS"},"data":[0,0,0,0,0,0,0,0,0,0,0,0,0,0,0,0,0,0,0,0,0,0,0,0,0,0,0,0,0,0,0,0,0,0,0,0,0,0,0,0,0,0,0,0,0,0,0,0,0,0,0,0,0,0,0,0,0,0,1.0234,1.0235,0,1.0366,1.0368,1.0369,1.0415,1.0415,1.0414,1.0414,1.0549,1.0553,1.0557,0,0,0,0,0,0,0,0,0,0,0,0,0,1.0019,1.0023,1.0233,1.0235,1.0237,1.0366,1.0368,1.0369,1.0415,1.0415,1.0414,1.0413,1.0548,1.0553,1.0558,0,0,0,0,0,0,0,0,0,0,0,0,0,1.0128,1.0024,1.0233,1.0275,1.028,1.0365,1.0368,1.037,1.0415,1.0415,1.0414,1.0413,1.0546,1.0552,1.0558,1.0612,0,0,1.0577,1.058,0,0,0,0,0,0,0,0,1.0122,1.0136,1.0267,1.0272,1.0278,1.0373,1.0342,1.0451,1.0415,1.0364,1.0414,1.0413,1.0491,1.0502,1.0529,1.0618,1.0624,1.0578,1.0582,1.0584,1.0586,0,0,0,0,0,0,0,1.0114,1.013,1.0286,1.0269,1.0276,1.0287,1.0302,1.0363,1.043,1.0368,1.0372,1.0387,1.0494,1.0523,1.0532,1.0626,1.0578,1.0583,1.0587,1.0589,1.0764,1.0765,0,0,0,0,0,0,1.0099,1.0124,1.0282,1.029,1.0196,1.0291,1.0308,1.0344,1.043,1.0442,1.0388,1.0389,1.0512,1.0525,1.0537,1.0605,1.0584,1.059,1.0593,1.0763,1.0765,1.0766,0,0,0,0,0,0,1.0095,1.0113,1.0276,1.0208,1.0229,1.0296,1.0336,1.0347,1.0375,1.0444,1.0457,1.0404,1.0512,1.0528,1.0593,1.061,1.0593,1.0598,1.0762,1.0764,1.0765,1.074,0,0,0,0,0,0,1.0088,1.0111,1.0132,1.0208,1.0233,1.033,1.0337,1.035,1.0385,1.0388,1.0463,1.0475,1.0513,1.0583,1.0599,1.0618,1.0603,1.0761,1.0763,1.0765,1.0739,1.074,1.0741,0,0,0,0,0,1.008,1.012,1.0133,1.0152,1.0261,1.0331,1.0345,1.0388,1.0387,1.0408,1.0453,1.0472,1.0605,1.0589,1.0607,1.0629,1.076,1.0762,1.0765,1.0739,1.074,1.0741,0,0,0,0,0,0,1.0045,1.0131,1.0146,1.0212,1.0263,1.0338,1.0367,1.0388,1.0441,1.0442,1.0493,1.0509,1.0569,1.0605,1.0586,1.0684,1.0684,1.069,1.0658,1.066,1.066,1.0651,1.0608,0,0,0,0,0,1.0045,1.0095,1.0167,1.0218,1.0243,1.03,1.0332,1.0361,1.0417,1.0439,1.0488,1.0541,1.0595,1.0629,1.0683,1.0745,1.0761,1.0768,1.0769,1.0769,1.0774,1.0808,1.0812,1.0773,1.0773,1.0773,0,0,1.0045,1.0098,1.0126,1.0212,1.0255,1.0305,1.0318,1.0371,1.0409,1.0447,1.051,1.0548,1.0611,1.0674,1.0704,1.0706,1.0788,1.0772,1.0771,1.0776,1.0811,1.0814,1.0817,1.0774,1.0774,1.0774,0,0,1.0071,1.0116,1.0163,1.0206,1.0272,1.031,1.032,1.0392,1.0419,1.0483,1.0512,1.0557,1.0649,1.0692,1.0726,1.0767,1.0787,1.0783,1.0787,1.082,1.0823,1.0826,1.084,1.0844,1.0787,1.0787,1.0787,0,1.0063,1.014,1.0184,1.0235,1.0272,1.0308,1.0355,1.0395,1.0475,1.0499,1.0499,1.0614,1.0659,1.0732,1.0742,1.0768,1.0782,1.0775,1.0819,1.0822,1.0825,1.0839,1.0844,1.0786,1.0786,1.0786,1.0786,0,1.0126,1.0179,1.0209,1.0284,1.0324,1.0373,1.0424,1.0459,1.0483,1.0521,1.0585,1.064,1.0705,1.0724,1.0749,1.08,1.0799,1.0809,1.081,1.0827,1.0841,1.0847,1.0784,1.0785,1.0785,1.0785,0,0,1.0134,1.0233,1.0243,1.0278,1.0352,1.0393,1.0443,1.0506,1.0535,1.0588,1.0631,1.0707,1.0715,1.0754,1.0784,1.0813,1.084,1.0818,1.0821,1.082,1.0899,1.0892,1.0897,1.0854,1.0855,1.0856,1.0894,0,1.0169,1.0261,1.0302,1.0374,1.0423,1.0458,1.0501,1.0551,1.0587,1.0633,1.0673,1.0726,1.0734,1.0757,1.0787,1.083,1.0857,1.0828,1.0894,1.0895,1.0877,1.0905,1.0897,1.0931,1.09,1.0901,1.0901,0,1.0223,1.0276,1.0353,1.0421,1.0443,1.0481,1.0542,1.0586,1.0643,1.0667,1.0709,1.0737,1.079,1.0787,1.086,1.084,1.0869,1.0894,1.0896,1.0904,1.0899,1.0913,1.0942,1.0947,1.091,1.091,1.0909,0,1.022,1.0311,1.0369,1.0397,1.0478,1.0504,1.0539,1.0595,1.063,1.0682,1.0705,1.0763,1.0795,1.0839,1.0882,1.0875,1.0951,1.0951,1.0972,1.0971,1.0987,1.0985,1.1021,1.1005,1.1005,1.1005,1.1005,0,1.0255,1.0301,1.0369,1.0404,1.0456,1.0503,1.0553,1.059,1.064,1.0682,1.0716,1.0755,1.081,1.0856,1.0889,1.0945,1.0959,1.0979,1.0988,1.0976,1.0974,1.0996,1.0995,1.1006,1.1006,1.1006,1.1005,0,1.0261,1.0309,1.0374,1.0445,1.0463,1.0499,1.0559,1.0594,1.0631,1.0685,1.07,1.0759,1.0814,1.0861,1.0935,1.0957,1.1015,1.1025,1.0995,1.1,1.1018,1.1015,1.1069,1.1078,1.1056,1.1056,1.1056,0,1.0281,1.0317,1.0391,1.0422,1.0457,1.0506,1.0542,1.0589,1.0624,1.0691,1.0718,1.0776,1.0825,1.0913,1.0961,1.1017,1.1029,1.1044,1.1038,1.1025,1.1029,1.1026,1.103,1.1044,1.1044,1.1044,1.1044,0,1.031,1.0331,1.0381,1.0439,1.0481,1.0529,1.0577,1.0601,1.0656,1.0694,1.0752,1.079,1.0864,1.0921,1.0982,1.1018,1.104,1.1046,1.1054,1.1042,1.1024,1.1034,1.0996,1.1045,1.1045,1.1045,1.1044,1.1044,1.0323,1.0356,1.0414,1.0468,1.051,1.0554,1.0591,1.0632,1.0681,1.0745,1.077,1.0828,1.0883,1.0967,1.1002,1.1048,1.1052,1.1063,1.1066,1.1068,1.1066,1.1016,1.106,1.106,1.106,1.106,1.106,0,1.0353,1.0392,1.0441,1.0508,1.0551,1.0568,1.0623,1.0657,1.0708,1.0758,1.0805,1.087,1.0925,1.0978,1.1035,1.1062,1.1074,1.1076,1.1074,1.1082,1.106,1.1047,1.1065,1.1065,1.1065,1.1065,1.1065,1.1065,1.0374,1.0431,1.0459,1.0537,1.0575,1.0633,1.0662,1.0703,1.0743,1.0814,1.086,1.0894,1.0944,1.1006,1.1057,1.1071,1.109,1.1089,1.1106,1.1084,1.1083,1.1082,1.1071,1.1093,1.1093,1.1124,1.1124,1.1124]},{"header":{"parameterUnit":"m.s-1","parameterCategory":1,"la1":30.2991,"la2":30.254,"lo1":-89.0895,"lo2":-89.0444,"dy":0.0017,"dx":0.0017,"nx":28,"ny":28,"refTime":"2025-07-07T03:00:00:Z","depth":0,"parameterNumber":3,"parameterNumberName":"V-component_of_WINDS"},"data":[0,0,0,0,0,0,0,0,0,0,0,0,0,0,0,0,0,0,0,0,0,0,0,0,0,0,0,0,0,0,0,0,0,0,0,0,0,0,0,0,0,0,0,0,0,0,0,0,0,0,0,0,0,0,0,0,0,0,4.2296,4.2296,0,4.2227,4.2226,4.2226,4.2211,4.2212,4.2212,4.2213,4.2134,4.2132,4.2129,0,0,0,0,0,0,0,0,0,0,0,0,0,4.2409,4.2407,4.2296,4.2296,4.2295,4.2227,4.2226,4.2225,4.2211,4.2212,4.2212,4.2213,4.2135,4.2132,4.2129,0,0,0,0,0,0,0,0,0,0,0,0,0,4.2352,4.2407,4.2296,4.228,4.2277,4.2227,4.2226,4.2225,4.2211,4.2212,4.2213,4.2213,4.2136,4.2132,4.2129,4.2088,0,0,4.2117,4.2115,0,0,0,0,0,0,0,0,4.2355,4.2348,4.2283,4.2281,4.2278,4.2229,4.2237,4.2179,4.2211,4.2236,4.2213,4.2214,4.2165,4.2158,4.2143,4.2085,4.2081,4.2116,4.2114,4.2112,4.2111,0,0,0,0,0,0,0,4.2359,4.2351,4.2269,4.2282,4.2279,4.2273,4.2266,4.2226,4.2196,4.2234,4.2233,4.2225,4.2163,4.2147,4.2141,4.208,4.2116,4.2113,4.2111,4.2109,4.1984,4.1983,0,0,0,0,0,0,4.2367,4.2354,4.2271,4.2267,4.232,4.2271,4.2262,4.2244,4.2197,4.2191,4.2224,4.2225,4.2153,4.2146,4.2139,4.2088,4.2112,4.2109,4.2106,4.1985,4.1984,4.1983,0,0,0,0,0,0,4.237,4.236,4.2274,4.231,4.2299,4.2268,4.2247,4.2242,4.2226,4.219,4.2184,4.2214,4.2154,4.2144,4.2101,4.2085,4.2107,4.2103,4.1986,4.1985,4.1983,4.1987,0,0,0,0,0,0,4.2373,4.2361,4.2347,4.231,4.2297,4.224,4.2246,4.224,4.222,4.222,4.2178,4.2172,4.2154,4.2107,4.2098,4.208,4.21,4.1988,4.1986,4.1984,4.1988,4.1986,4.1984,0,0,0,0,0,4.2377,4.2349,4.2346,4.2336,4.2279,4.2239,4.2231,4.2213,4.2219,4.2203,4.218,4.2173,4.2089,4.2103,4.2092,4.2073,4.1988,4.1986,4.1984,4.1989,4.1987,4.1984,0,0,0,0,0,0,4.2382,4.2344,4.234,4.23,4.2273,4.2237,4.2217,4.221,4.2179,4.218,4.2156,4.2147,4.2105,4.2085,4.2101,4.2032,4.2039,4.2034,4.2047,4.2044,4.2042,4.2047,4.2097,0,0,0,0,0,4.2379,4.2352,4.2319,4.2286,4.2274,4.2248,4.2229,4.2218,4.2188,4.2176,4.2149,4.2118,4.2085,4.2063,4.203,4.1986,4.1976,4.1967,4.1965,4.1964,4.196,4.1934,4.193,4.1976,4.1976,4.1976,0,0,4.2371,4.2347,4.2331,4.2287,4.2265,4.2235,4.2238,4.2206,4.2183,4.217,4.2129,4.2108,4.2072,4.2028,4.2008,4.201,4.1945,4.1961,4.196,4.1957,4.1931,4.1927,4.1923,4.1974,4.1974,4.1975,0,0,4.2342,4.2322,4.2293,4.2271,4.2239,4.2222,4.2215,4.2179,4.2166,4.2125,4.2114,4.2085,4.2028,4.2003,4.1983,4.1945,4.1937,4.1935,4.1923,4.1899,4.1895,4.1892,4.1878,4.1873,4.1931,4.1931,4.1931,0,4.2336,4.2294,4.2278,4.2247,4.2228,4.2217,4.2186,4.2165,4.2122,4.2108,4.2112,4.2041,4.2015,4.1966,4.1957,4.1941,4.1931,4.1939,4.1898,4.1894,4.1891,4.1877,4.1872,4.1931,4.1931,4.1931,4.1931,0,4.2287,4.2258,4.2238,4.22,4.2178,4.2148,4.2125,4.2104,4.2095,4.2077,4.2034,4.2004,4.1965,4.1952,4.1942,4.1901,4.1903,4.1903,4.1909,4.1886,4.1873,4.1868,4.1931,4.1931,4.1931,4.1931,0,0,4.2259,4.2214,4.2207,4.219,4.2153,4.2129,4.2097,4.2062,4.2044,4.2015,4.1986,4.1939,4.1939,4.1915,4.1902,4.188,4.1852,4.1882,4.1881,4.1877,4.1804,4.1805,4.1799,4.1847,4.1846,4.1845,4.1807,0,4.2225,4.2171,4.2156,4.211,4.2082,4.2071,4.2043,4.2017,4.1999,4.1971,4.195,4.1917,4.1919,4.1905,4.1884,4.186,4.1837,4.1863,4.1818,4.1817,4.1828,4.1793,4.1793,4.1759,4.1802,4.1801,4.1801,0,4.2179,4.2152,4.2103,4.2071,4.2059,4.2034,4.2001,4.1975,4.1944,4.1932,4.1907,4.1896,4.186,4.1869,4.1819,4.1837,4.1818,4.1804,4.1802,4.1796,4.1807,4.1786,4.1748,4.1742,4.1792,4.1793,4.1794,0,4.2162,4.2114,4.2078,4.2064,4.2026,4.2009,4.1991,4.1962,4.1941,4.1911,4.1897,4.1862,4.1843,4.1815,4.1793,4.1802,4.1745,4.1752,4.1733,4.1733,4.172,4.1721,4.1678,4.1709,4.1709,4.1709,4.1709,0,4.2126,4.2097,4.2071,4.2049,4.2015,4.1998,4.1964,4.1946,4.1919,4.1892,4.188,4.1854,4.1828,4.1798,4.1781,4.1742,4.1733,4.1721,4.1717,4.1722,4.1723,4.1709,4.171,4.1708,4.1708,4.1708,4.1709,0,4.2102,4.2084,4.2045,4.2013,4.2004,4.198,4.1951,4.1928,4.1911,4.1877,4.1868,4.1839,4.1804,4.178,4.1733,4.1722,4.1679,4.1675,4.169,4.1688,4.167,4.1672,4.1615,4.1607,4.1644,4.1643,4.1643,0,4.208,4.2058,4.2024,4.2006,4.199,4.1961,4.1941,4.1922,4.1902,4.1865,4.1847,4.1811,4.1781,4.1725,4.1698,4.1662,4.1657,4.164,4.1652,4.1658,4.1656,4.1658,4.1655,4.1638,4.1638,4.1637,4.1637,0,4.2043,4.2035,4.2008,4.1979,4.1956,4.193,4.1905,4.189,4.1867,4.1844,4.1809,4.1786,4.174,4.1704,4.1666,4.1646,4.1637,4.1634,4.1628,4.1632,4.1642,4.1637,4.1685,4.1635,4.1635,4.1635,4.1636,4.1636,4.2018,4.1998,4.1972,4.1942,4.1922,4.1899,4.1876,4.1857,4.1828,4.1791,4.1781,4.1745,4.1713,4.1662,4.1641,4.1611,4.1612,4.1603,4.16,4.1598,4.1598,4.1648,4.1603,4.1603,4.1603,4.1603,4.1603,0,4.198,4.1964,4.1937,4.1903,4.1879,4.1876,4.1848,4.1827,4.1796,4.1769,4.1742,4.1701,4.1666,4.1638,4.1602,4.1582,4.1577,4.1573,4.1574,4.157,4.1599,4.1608,4.1578,4.1578,4.1578,4.1578,4.1578,4.1578,4.1958,4.1924,4.1913,4.1868,4.185,4.1817,4.1801,4.1778,4.1757,4.1714,4.1686,4.1669,4.164,4.1602,4.157,4.1562,4.1549,4.1546,4.1537,4.1565,4.1568,4.157,4.1579,4.1543,4.1543,4.151,4.151,4.151]}]]